Date,TemperatureHighF,TemperatureAvgF,TemperatureLowF,DewpointHighF,DewpointAvgF,DewpointLowF,HumidityHigh,HumidityAvg,HumidityLow,PressureMaxIn,PressureMinIn,WindSpeedMaxMPH,WindSpeedAvgMPH,GustSpeedMaxMPH,PrecipitationSumIn
2013-1-1,34.5,26.4,18.8,33.0,23.5,16.0,95,89,83,30.32,30.08,12,4,17,0.00
2013-1-2,35.3,25.0,15.1,24.0,18.7,12.0,90,78,57,30.34,30.22,8,2,13,0.00
2013-1-3,41.3,30.9,20.1,30.0,24.0,17.0,91,77,54,30.48,30.32,7,1,10,0.00
2013-1-4,46.4,33.4,19.8,26.0,22.7,17.0,91,68,42,30.49,30.34,11,2,14,0.01
2013-1-5,43.8,38.6,33.7,33.0,28.9,23.0,80,68,59,30.34,30.16,14,4,21,0.00
2013-1-6,42.2,32.4,24.3,29.0,23.2,20.0,87,70,46,30.41,30.25,5,0,8,0.00
2013-1-7,51.3,38.7,25.1,27.0,24.1,20.0,80,58,36,30.38,30.12,12,2,18,0.00
2013-1-8,56.9,45.7,34.8,46.0,33.6,24.0,94,65,45,30.21,30.04,11,3,19,0.16
2013-1-9,55.5,48.2,41.6,46.0,41.8,37.0,96,80,57,30.37,30.21,18,6,24,0.01
2013-1-10,56.3,50.2,45.2,52.0,45.1,33.0,94,83,49,30.23,29.80,25,8,26,0.15
2013-1-11,65.0,57.1,47.8,47.0,45.2,44.0,91,67,49,29.84,29.67,16,7,25,0.01
2013-1-12,60.2,38.9,25.0,48.0,29.4,20.0,91,71,36,30.03,29.75,15,4,20,0.19
2013-1-13,24.8,21.4,16.3,20.0,16.2,12.0,88,80,74,30.43,30.04,0,0,0,0.00
2013-1-14,27.5,20.8,12.9,18.0,14.7,10.0,88,77,64,30.55,30.41,9,2,12,0.00
2013-1-15,30.2,23.2,17.6,20.0,16.3,14.0,86,76,54,30.41,30.24,8,3,13,0.01
2013-1-16,41.6,27.8,14.3,24.0,18.4,11.0,88,70,45,30.25,30.14,11,2,16,0.11
2013-1-17,45.4,35.5,26.4,32.0,27.0,21.0,85,72,53,30.50,30.23,10,2,15,0.08
2013-1-18,55.9,43.7,29.3,32.0,27.8,24.0,84,56,31,30.51,30.17,17,5,25,0.00
2013-1-19,60.3,49.4,38.7,38.0,34.0,30.0,80,57,41,30.22,30.05,17,5,24,0.00
2013-1-20,51.8,40.4,27.5,32.0,25.1,14.0,75,56,38,30.34,30.16,13,6,18,0.00
2013-1-21,32.8,26.5,20.7,16.0,13.0,11.0,68,58,47,30.44,30.34,10,5,18,0.00
2013-1-22,40.8,28.9,21.2,24.0,18.0,13.0,75,64,51,30.39,30.25,8,3,12,0.00
2013-1-23,55.7,39.5,22.8,40.0,29.5,19.0,85,68,56,30.32,30.17,12,2,15,0.00
2013-1-24,37.2,32.9,28.0,24.0,17.8,13.0,63,54,46,30.38,30.16,22,10,25,0.00
2013-1-25,46.7,38.1,32.6,29.0,25.7,20.0,77,62,45,30.29,30.14,6,1,10,0.00
2013-1-26,59.5,47.2,31.8,28.0,25.4,21.0,81,46,27,30.29,30.11,9,3,16,0.00
2013-1-27,60.9,55.0,46.4,56.0,47.2,24.0,83,76,36,30.11,29.85,15,6,22,0.00
2013-1-28,73.5,67.7,60.4,62.0,60.1,55.0,84,77,63,29.89,29.72,21,8,28,0.00
2013-1-29,70.1,59.0,41.0,62.0,54.3,39.0,94,85,74,29.72,29.43,21,6,27,1.33
2013-1-30,41.9,31.8,24.3,40.0,26.4,19.0,95,80,70,30.09,29.50,21,8,24,0.00
2013-1-31,38.3,26.7,16.1,28.0,18.8,6.0,88,72,59,30.52,30.02,9,2,15,0.00
2013-2-1,37.5,23.9,12.6,22.0,11.6,4.0,78,61,41,30.53,30.23,10,2,13,0.00
2013-2-2,51.4,41.1,27.4,34.0,27.5,19.0,76,59,49,30.28,30.18,15,3,19,0.00
2013-2-3,52.4,44.2,35.3,30.0,25.4,19.0,71,50,29,30.30,29.95,12,3,17,0.00
2013-2-4,61.2,51.7,37.0,41.0,33.3,25.0,79,51,36,29.96,29.82,14,5,21,0.04
2013-2-5,60.4,45.0,29.3,40.0,33.0,27.0,91,66,39,30.08,29.92,14,2,18,0.00
2013-2-6,65.0,52.8,41.4,42.0,35.4,30.0,66,53,40,30.10,29.92,14,4,17,0.00
2013-2-7,54.9,49.7,39.6,50.0,45.2,35.0,94,85,62,30.14,29.85,11,3,18,0.56
2013-2-8,46.3,38.5,32.9,35.0,31.8,28.0,86,77,61,30.33,30.14,12,6,17,0.00
2013-2-9,48.0,40.2,34.0,41.0,32.9,30.0,90,76,50,30.22,29.80,14,7,20,0.10
2013-2-10,58.2,51.1,38.6,51.0,37.7,27.0,92,64,34,30.03,29.61,24,10,34,0.10
2013-2-11,49.1,39.3,30.5,30.0,26.8,25.0,84,62,39,30.21,30.03,7,2,14,0.00
2013-2-12,42.8,35.7,29.5,34.0,28.9,25.0,94,77,61,30.18,29.98,8,2,14,0.08
2013-2-13,49.1,38.7,31.6,37.0,32.4,30.0,96,80,57,30.03,29.93,15,5,17,0.26
2013-2-14,54.3,44.7,35.3,34.0,30.4,25.0,72,58,44,30.19,29.94,9,3,17,0.00
2013-2-15,41.8,33.8,25.4,30.0,19.8,13.0,80,59,35,30.38,30.19,9,3,19,0.00
2013-2-16,37.0,31.9,25.4,26.0,20.7,17.0,89,65,46,30.37,30.13,10,2,13,0.00
2013-2-17,65.0,49.9,34.4,32.0,25.3,15.0,52,39,26,30.14,29.77,10,4,21,0.00
2013-2-18,59.7,50.7,33.0,51.0,37.6,21.0,80,62,38,30.14,29.55,30,8,40,0.08
2013-2-19,42.2,33.8,24.5,22.0,17.6,13.0,82,54,33,30.35,30.14,12,2,19,0.00
2013-2-20,35.2,30.9,26.5,22.0,14.0,10.0,68,50,40,30.35,30.10,14,7,22,0.00
2013-2-21,33.5,31.3,29.1,32.0,27.8,21.0,94,87,67,30.12,29.72,16,2,22,0.08
2013-2-22,33.3,26.0,20.7,31.0,21.1,17.0,91,82,71,30.17,29.87,14,4,21,0.17
2013-2-23,39.4,28.7,18.0,26.0,21.0,15.0,90,74,53,30.16,30.01,9,1,10,0.22
2013-2-24,56.0,42.0,29.9,37.0,30.3,23.0,77,65,48,30.03,29.83,15,4,20,0.07
2013-2-25,40.5,37.0,33.4,34.0,31.6,29.0,92,81,63,29.90,29.50,24,11,30,0.44
2013-2-26,35.3,33.5,32.2,31.0,30.9,30.0,94,89,84,29.91,29.44,13,3,20,0.27
2013-2-27,36.2,33.0,31.0,31.0,28.2,27.0,89,83,73,30.11,29.89,17,6,22,0.12
2013-2-28,34.7,32.1,29.4,28.0,26.6,25.0,86,80,74,30.25,30.10,10,2,12,0.02
2013-3-1,31.2,29.3,27.1,26.0,23.3,21.0,84,78,71,30.33,30.20,7,3,13,0.00
2013-3-2,36.1,29.4,24.4,24.0,21.7,19.0,85,74,58,30.39,30.23,9,2,11,0.00
2013-3-3,58.1,43.4,28.0,32.0,26.8,21.0,76,54,36,30.24,29.75,11,3,17,0.00
2013-3-4,66.6,53.7,41.8,45.0,36.7,30.0,70,54,39,29.91,29.57,12,4,18,0.00
2013-3-5,43.0,37.1,30.6,34.0,25.3,18.0,91,64,47,30.36,29.90,24,7,31,0.14
2013-3-6,43.8,33.9,24.2,26.0,22.1,18.0,78,63,46,30.45,30.28,11,3,14,0.00
2013-3-7,63.6,49.5,35.9,28.0,25.5,22.0,68,43,22,30.29,30.11,10,4,17,0.00
2013-3-8,65.0,53.9,43.3,41.0,35.3,29.0,65,51,37,30.20,30.01,14,6,19,0.01
2013-3-9,67.5,58.9,52.2,57.0,47.0,37.0,92,66,51,30.01,29.61,18,6,27,0.96
2013-3-10,56.2,44.2,29.5,53.0,41.4,27.0,93,90,75,29.96,29.59,17,7,26,0.27
2013-3-11,43.8,34.4,27.6,28.0,24.4,21.0,88,69,40,30.06,29.94,16,6,22,0.00
2013-3-12,53.5,40.6,29.2,31.0,26.2,22.0,85,59,37,30.36,30.05,11,2,21,0.00
2013-3-13,47.9,37.8,26.3,24.0,21.8,17.0,81,55,31,30.50,30.36,9,1,10,0.00
2013-3-14,71.9,54.5,38.5,43.0,31.1,19.0,66,42,33,30.36,30.07,19,5,32,0.00
2013-3-15,78.1,66.0,48.8,48.0,45.3,41.0,74,49,31,30.08,29.71,17,6,24,0.00
2013-3-16,68.9,55.9,43.7,47.0,42.2,36.0,76,61,44,29.89,29.69,19,10,24,0.00
2013-3-17,43.6,40.5,37.9,40.0,38.0,35.0,95,90,75,29.94,29.70,22,10,27,0.17
2013-3-18,55.2,44.8,37.6,41.0,35.5,27.0,96,74,35,30.06,29.71,12,3,21,0.04
2013-3-19,50.7,41.9,33.2,33.0,25.2,15.0,81,54,31,30.28,30.05,14,5,22,0.00
2013-3-20,44.8,37.0,29.1,31.0,21.1,12.0,91,57,32,30.41,30.14,13,3,17,0.00
2013-3-21,40.0,34.5,32.2,31.0,20.4,9.0,90,60,30,30.14,29.85,17,8,23,0.01
2013-3-22,39.8,36.1,33.1,36.0,32.8,30.0,92,88,84,29.97,29.87,9,5,14,0.06
2013-3-23,40.4,38.2,36.3,38.6,36.4,34.0,95,93,87,29.97,29.75,20,7,20,0.06
2013-3-24,37.6,31.8,25.7,36.3,28.4,21.1,95,87,75,30.16,29.68,18,2,18,0.30
2013-3-25,34.8,23.0,22.7,26.0,-4.2,-99.9,83,59,63,30.39,30.14,16,-216,22,0.06
2013-3-26,42.6,34.5,22.7,27.0,24.0,20.0,90,67,48,30.47,30.33,9,1,12,0.02
2013-3-27,59.9,45.1,29.2,30.7,24.6,20.1,79,49,23,30.34,30.16,18,3,18,0.00
2013-3-28,70.8,59.1,49.2,49.3,40.1,29.5,62,49,44,30.19,30.07,17,4,17,0.00
2013-3-29,67.7,59.8,52.6,54.8,50.9,46.9,93,73,57,30.16,30.07,15,4,15,0.44
2013-3-30,71.0,59.9,54.1,56.9,52.7,48.4,93,78,53,30.08,29.83,20,4,20,1.17
2013-3-31,67.2,57.3,48.0,53.0,45.8,38.8,96,69,38,29.98,29.84,21,2,21,0.19
2013-4-1,49.9,44.9,41.3,42.3,35.6,26.9,88,70,55,30.22,29.94,21,7,21,0.03
2013-4-2,41.3,38.5,36.6,34.4,31.6,26.0,83,76,56,30.30,30.21,18,7,18,0.13
2013-4-3,51.2,43.8,38.4,33.3,28.1,22.9,81,56,35,30.31,30.18,25,7,25,0.00
2013-4-4,58.4,49.0,40.6,36.4,31.9,28.5,75,53,35,30.18,30.07,14,2,14,0.00
2013-4-5,69.5,53.6,33.5,46.1,36.5,30.0,88,57,26,30.20,29.95,15,2,15,0.00
2013-4-6,72.8,64.8,57.2,50.2,44.2,34.0,57,47,38,29.95,29.73,37,8,37,0.00
2013-4-7,75.7,66.9,58.7,58.6,54.6,48.0,81,65,50,29.87,29.67,18,5,18,0.00
2013-4-8,74.7,67.2,61.4,60.8,57.7,54.9,83,72,61,29.73,29.65,24,5,24,0.00
2013-4-9,77.5,71.7,66.4,63.2,59.8,56.4,74,66,58,29.72,29.63,18,5,18,0.00
2013-4-10,73.0,44.8,35.7,60.5,41.8,33.9,94,90,62,29.90,29.65,25,6,25,1.06
2013-4-11,49.3,40.4,33.9,34.0,32.5,29.0,94,75,52,29.91,29.77,21,6,22,0.02
2013-4-12,54.2,43.8,33.2,36.9,32.8,28.3,87,67,46,30.04,29.82,19,4,19,0.00
2013-4-13,70.5,54.4,36.4,47.1,39.5,33.1,89,61,35,30.07,29.74,16,3,16,0.00
2013-4-14,78.3,68.1,57.5,59.3,48.4,43.6,85,51,32,29.74,29.47,26,6,26,0.09
2013-4-15,73.0,57.4,49.8,59.5,47.1,37.3,83,69,52,29.91,29.65,22,8,22,0.00
2013-4-16,54.2,49.1,46.6,49.1,45.6,42.0,92,88,76,30.02,29.87,18,9,21,0.01
2013-4-17,81.5,68.3,48.2,68.8,60.6,45.7,91,78,58,29.98,29.53,24,6,24,0.17
2013-4-18,70.3,47.0,38.0,64.2,42.0,27.4,95,83,65,30.01,29.46,30,8,30,2.19
2013-4-19,55.4,44.4,33.4,35.7,30.2,25.8,80,59,37,30.11,29.99,26,7,26,0.00
2013-4-20,66.5,52.4,35.7,40.0,34.9,31.0,89,56,28,30.20,30.08,15,3,15,0.00
2013-4-21,68.5,60.2,52.6,41.3,37.9,30.7,61,45,26,30.23,30.09,24,4,24,0.00
2013-4-22,70.4,61.4,49.2,48.0,41.0,37.0,67,48,34,30.15,29.87,18,4,18,0.01
2013-4-23,65.7,44.1,36.2,52.0,40.8,33.8,93,89,48,30.16,29.81,22,5,22,0.76
2013-4-24,51.9,42.4,33.4,34.0,31.0,23.8,93,67,38,30.32,30.15,15,2,15,0.04
2013-4-25,68.9,55.6,36.2,39.9,33.1,28.0,79,46,24,30.38,30.16,9,2,13,0.00
2013-4-26,61.4,51.1,47.6,48.6,43.4,-99.9,93,79,36,30.29,30.10,22,6,22,1.37
2013-4-27,52.7,51.3,49.8,50.4,49.1,48.0,95,92,89,30.11,30.01,11,2,12,0.26
2013-4-28,73.8,61.3,49.7,57.2,51.4,48.3,95,73,47,30.03,29.83,10,1,10,0.00
2013-4-29,86.5,73.3,58.4,60.4,54.1,50.3,78,54,31,29.84,29.68,24,5,24,0.00
2013-4-30,83.0,74.5,65.9,56.7,51.6,42.1,67,47,24,29.81,29.71,23,5,23,0.00
2013-5-1,83.0,72.5,60.8,63.2,57.0,48.0,77,59,46,30.01,29.80,21,4,21,0.00
2013-5-2,66.2,44.3,32.8,58.7,40.5,31.0,93,86,78,30.34,30.00,18,5,18,0.51
2013-5-3,44.3,37.9,32.9,36.9,34.0,31.0,94,86,66,30.31,29.96,17,4,17,0.83
2013-5-4,45.2,39.3,34.5,39.8,35.9,32.0,94,88,76,30.05,29.87,13,1,13,0.32
2013-5-5,57.2,48.1,35.9,49.7,43.6,34.3,95,85,72,30.12,30.03,14,1,14,0.01
2013-5-6,61.7,53.0,48.0,53.2,49.2,46.1,94,87,71,30.11,30.02,8,1,9,0.00
2013-5-7,75.8,60.5,42.6,56.8,50.4,41.0,96,73,44,30.10,29.95,9,1,9,0.00
2013-5-8,78.5,65.7,56.8,60.9,55.4,50.1,92,71,45,30.07,29.85,19,2,19,0.21
2013-5-9,76.2,67.1,59.4,64.2,59.7,55.7,94,78,60,29.92,29.84,16,4,16,0.54
2013-5-10,66.2,61.0,51.3,60.0,55.6,49.3,95,83,62,30.06,29.87,12,2,12,0.00
2013-5-11,72.7,59.3,44.5,55.3,44.4,34.3,95,63,30,30.21,30.04,20,3,20,0.00
2013-5-12,66.5,54.6,38.4,43.8,36.3,25.8,88,53,26,30.28,30.15,12,1,12,0.00
2013-5-13,79.8,65.6,48.4,57.5,48.8,40.8,81,57,38,30.16,29.98,16,3,16,0.00
2013-5-14,88.0,77.0,67.3,58.6,53.2,49.1,66,45,31,29.98,29.86,23,6,23,0.00
2013-5-15,79.0,70.1,64.3,66.3,59.9,51.0,93,71,50,29.91,29.80,20,4,20,0.16
2013-5-16,71.3,65.5,62.4,64.0,61.9,60.3,95,89,70,29.85,29.78,13,1,13,0.02
2013-5-17,81.3,69.7,59.4,64.5,61.7,58.3,97,78,53,29.91,29.83,9,0,9,0.00
2013-5-18,86.3,75.8,65.5,73.7,68.5,61.6,89,79,65,29.88,29.71,17,3,17,0.00
2013-5-19,87.2,77.9,69.0,70.2,65.1,59.8,85,66,48,29.81,29.52,39,4,39,0.20
2013-5-20,77.2,67.8,61.0,70.8,64.0,58.5,94,88,79,29.77,29.62,21,4,29,1.91
2013-5-21,69.0,63.6,59.1,63.3,59.4,55.8,93,86,78,29.82,29.59,19,2,19,0.04
2013-5-22,72.8,64.4,56.7,59.1,56.7,54.6,94,77,56,29.92,29.75,18,4,18,0.01
2013-5-23,73.3,64.1,54.6,58.5,55.6,52.3,95,75,56,30.15,29.92,17,4,17,0.00
2013-5-24,75.4,65.6,56.2,60.4,55.1,50.5,88,70,57,30.26,30.11,22,6,22,0.00
2013-5-25,83.7,71.5,57.9,66.5,60.2,51.3,85,68,53,30.18,30.00,17,4,17,0.12
2013-5-26,83.0,75.1,68.1,68.8,65.2,62.4,85,72,58,30.06,29.90,20,4,20,0.00
2013-5-27,84.2,76.5,68.7,68.9,65.8,60.0,86,70,57,29.92,29.69,24,6,24,0.00
2013-5-28,83.2,77.1,73.0,68.1,65.8,63.9,80,68,58,29.80,29.67,26,6,26,0.00
2013-5-29,80.0,76.0,72.7,67.1,65.1,63.3,75,69,61,29.81,29.67,23,6,23,0.00
2013-5-30,77.8,69.3,63.2,69.0,64.9,61.0,94,86,73,29.74,29.64,17,5,29,2.25
2013-5-31,84.5,74.5,66.0,73.0,68.4,62.0,92,81,65,29.78,29.60,16,5,29,0.38
2013-6-1,76.6,68.3,62.3,66.0,60.8,56.0,94,78,55,29.96,29.64,13,4,18,0.96
2013-6-2,66.9,62.6,59.9,58.0,55.1,53.0,87,76,65,30.05,29.95,7,2,12,0.00
2013-6-3,77.4,69.1,50.6,59.0,55.7,49.0,93,64,47,30.03,29.87,5,1,10,0.00
2013-6-4,76.1,68.9,63.6,65.0,61.5,57.0,85,77,68,29.95,29.86,13,4,17,0.01
2013-6-5,76.3,68.9,63.8,68.0,63.3,61.0,94,82,73,29.94,29.83,14,3,18,0.87
2013-6-6,75.0,67.8,58.9,63.0,59.1,53.0,94,75,50,29.92,29.87,7,1,13,0.00
2013-6-7,77.1,65.1,52.7,58.0,54.2,51.0,94,71,42,29.98,29.88,7,1,11,0.00
2013-6-8,80.0,69.7,55.9,63.0,57.4,52.0,90,67,47,29.92,29.78,9,1,15,0.00
2013-6-9,82.7,73.1,64.1,65.0,60.9,58.0,90,67,45,29.86,29.77,12,2,23,0.02
2013-6-10,91.7,79.4,65.0,72.0,65.8,59.0,84,64,49,29.87,29.80,11,2,18,0.00
2013-6-11,93.7,84.1,75.3,70.0,67.8,63.0,75,59,38,29.91,29.82,13,3,23,0.00
2013-6-12,91.5,83.5,75.5,73.0,70.6,67.0,82,66,46,29.87,29.80,23,7,30,0.00
2013-6-13,85.7,78.1,70.3,71.0,65.9,60.0,88,67,51,29.99,29.86,12,4,15,0.00
2013-6-14,91.8,80.3,69.4,76.0,70.7,65.0,85,73,56,29.97,29.85,9,3,13,0.00
2013-6-15,89.6,75.9,69.0,75.0,69.5,66.0,93,81,62,29.97,29.84,13,3,20,2.17
2013-6-16,89.2,78.5,67.8,75.0,71.0,65.0,95,79,59,29.95,29.85,10,2,14,0.00
2013-6-17,76.8,71.3,67.6,70.0,66.5,61.0,92,85,68,29.93,29.83,15,4,28,0.16
2013-6-18,85.1,75.0,64.9,70.0,65.0,61.0,96,73,48,30.00,29.91,9,2,15,0.01
2013-6-19,84.9,76.1,64.3,71.0,65.6,62.0,92,71,51,30.00,29.91,8,1,13,0.00
2013-6-20,89.3,79.3,68.4,74.0,69.1,64.0,86,72,58,30.01,29.90,11,4,18,0.00
2013-6-21,91.0,82.6,75.2,73.0,71.9,70.0,86,71,55,29.99,29.91,12,4,21,0.00
2013-6-22,90.3,81.8,75.9,74.0,71.1,69.0,83,71,54,29.98,29.85,11,3,16,0.00
2013-6-23,90.5,82.1,73.1,73.0,70.8,68.0,87,70,55,29.93,29.82,15,4,23,0.00
2013-6-24,90.0,82.6,75.6,73.0,69.9,68.0,79,66,51,29.96,29.85,15,5,18,0.00
2013-6-25,88.5,82.1,76.8,72.0,70.0,68.0,79,67,54,29.90,29.75,14,5,19,0.00
2013-6-26,93.3,85.2,78.6,77.0,72.9,69.0,83,67,55,29.85,29.74,14,5,22,0.00
2013-6-27,97.5,86.6,75.6,77.0,74.9,73.0,90,69,49,29.91,29.80,9,2,10,0.00
2013-6-28,91.8,82.3,72.4,76.0,66.2,58.0,88,60,36,29.89,29.77,6,2,15,0.00
2013-6-29,87.1,77.6,63.9,63.0,56.4,51.0,84,51,29,29.85,29.76,14,3,21,0.00
2013-6-30,79.3,71.6,63.1,61.0,58.5,56.0,83,64,46,29.95,29.81,15,4,15,0.00
2013-7-1,79.6,72.0,63.2,59.0,55.1,45.0,81,58,30,30.02,29.95,12,4,20,0.00
2013-7-2,80.3,70.0,56.5,57.0,53.1,48.0,89,59,33,30.07,30.00,11,3,18,0.00
2013-7-3,83.4,71.1,57.9,59.0,55.4,51.0,88,61,34,30.07,29.97,9,2,14,0.00
2013-7-4,88.4,75.4,63.5,63.0,57.2,53.0,75,55,31,30.02,29.91,9,3,14,0.00
2013-7-5,89.1,77.7,64.7,63.0,59.2,57.0,75,55,36,29.99,29.87,8,2,12,0.00
2013-7-6,85.1,74.4,68.5,69.0,62.7,58.0,80,67,52,29.98,29.87,5,1,9,0.00
2013-7-7,89.4,81.1,73.5,70.0,66.0,63.0,75,61,45,29.99,29.91,11,2,16,0.00
2013-7-8,93.5,82.7,72.9,72.0,67.8,65.0,76,62,43,30.03,29.95,9,2,17,0.00
2013-7-9,96.9,86.2,77.0,72.0,70.1,67.0,77,60,38,30.00,29.86,13,4,16,0.00
2013-7-10,96.8,87.4,78.6,76.0,69.9,65.0,75,58,37,29.95,29.84,10,3,13,0.00
2013-7-11,91.1,82.7,74.5,74.0,67.8,62.0,83,63,39,29.96,29.87,16,6,21,0.00
2013-7-12,92.0,80.4,71.2,71.0,64.5,58.0,72,59,47,29.99,29.90,11,4,16,0.00
2013-7-13,92.6,80.1,68.5,67.0,59.5,53.0,61,50,41,29.99,29.90,14,4,20,0.00
2013-7-14,87.4,78.7,67.2,62.0,58.1,52.0,75,51,31,30.02,29.91,13,4,20,0.00
2013-7-15,89.4,77.0,68.6,71.0,65.0,57.0,92,68,43,30.13,30.02,10,3,18,0.32
2013-7-16,91.1,78.7,69.8,72.0,69.6,66.0,93,75,44,30.22,30.12,8,2,20,0.01
2013-7-17,91.3,82.3,71.9,72.0,68.6,65.0,88,66,43,30.27,30.13,9,2,15,0.00
2013-7-18,96.5,84.7,71.3,72.0,68.6,64.0,90,62,35,30.16,29.96,6,1,11,0.00
2013-7-19,97.3,85.2,72.5,73.0,68.8,63.0,84,61,34,29.98,29.82,9,2,13,0.00
2013-7-20,96.1,83.1,70.5,72.0,68.8,64.0,92,65,35,29.91,29.75,16,4,23,0.21
2013-7-21,82.3,74.5,69.2,74.0,70.2,66.0,94,87,74,29.89,29.79,8,2,14,0.40
2013-7-22,87.3,77.2,68.0,74.0,69.3,63.0,93,77,60,29.88,29.76,16,4,23,0.37
2013-7-23,96.3,86.0,75.7,77.0,73.5,69.0,83,67,51,29.84,29.72,12,4,21,0.00
2013-7-24,85.5,77.4,70.2,71.0,67.9,62.0,93,74,54,29.98,29.78,10,2,16,0.18
2013-7-25,87.5,76.7,67.1,68.0,64.8,62.0,84,68,48,30.05,29.96,8,2,13,0.00
2013-7-26,76.6,72.4,67.1,71.0,68.3,66.0,95,87,73,30.00,29.94,9,2,12,1.15
2013-7-27,78.5,70.2,62.6,67.0,59.4,54.0,96,71,44,30.05,29.94,8,2,12,0.00
2013-7-28,70.4,66.7,63.6,65.0,61.3,57.0,92,83,71,30.03,29.97,6,1,9,0.08
2013-7-29,85.2,74.5,66.4,75.0,68.8,62.0,93,82,68,30.03,29.91,8,2,18,0.59
2013-7-30,86.5,78.0,69.5,76.0,72.5,68.0,95,84,66,29.98,29.93,10,2,19,0.86
2013-7-31,85.5,78.6,72.8,75.0,71.5,68.0,95,80,58,30.03,29.95,9,1,13,0.00
2013-8-1,86.3,76.6,67.2,70.0,67.2,64.0,93,74,50,30.07,29.93,9,2,12,0.00
2013-8-2,87.9,78.5,72.2,77.0,72.1,67.0,89,81,66,29.92,29.79,10,3,16,0.01
2013-8-3,90.2,78.8,69.1,76.0,72.0,67.0,93,80,58,30.03,29.82,9,2,23,1.23
2013-8-4,78.0,74.2,72.0,73.0,71.0,68.0,94,89,84,30.10,29.96,10,3,13,1.21
2013-8-5,91.3,79.1,71.0,79.0,73.7,69.0,95,84,64,29.97,29.77,11,2,15,0.13
2013-8-6,89.2,80.4,71.2,79.0,74.2,69.0,94,82,64,29.89,29.73,13,2,26,0.35
2013-8-7,83.8,78.2,73.3,75.0,72.9,71.0,94,84,71,29.88,29.74,13,3,22,0.10
2013-8-8,85.2,76.4,70.9,74.0,71.8,70.0,95,86,65,29.95,29.79,9,3,13,0.50
2013-8-9,79.6,72.6,66.7,72.0,68.6,63.0,94,87,68,30.03,29.87,9,3,21,0.17
2013-8-10,81.9,74.8,68.0,70.0,67.3,65.0,94,78,59,30.11,30.02,15,6,19,0.00
2013-8-11,87.5,77.0,69.3,76.0,71.0,67.0,93,82,61,30.07,29.96,5,2,11,0.00
2013-8-12,83.6,76.1,70.3,73.0,71.5,68.0,94,86,68,30.04,29.91,6,1,13,0.23
2013-8-13,80.6,74.7,69.2,72.0,67.9,61.0,95,80,61,30.04,29.94,12,4,17,0.00
2013-8-14,77.1,69.8,63.1,63.0,60.5,57.0,90,73,54,30.13,30.03,12,4,15,0.00
2013-8-15,76.6,67.7,58.3,60.0,57.0,55.0,87,70,50,30.10,29.99,8,2,11,0.00
2013-8-16,76.5,69.3,62.0,61.0,58.5,57.0,84,69,54,30.11,30.01,10,3,14,0.00
2013-8-17,76.8,68.4,57.7,62.0,58.6,55.0,92,72,52,30.14,30.04,11,2,19,0.00
2013-8-18,81.8,72.5,61.3,67.0,62.8,59.0,93,73,54,30.12,30.02,6,1,12,0.00
2013-8-19,85.8,74.1,63.2,68.0,63.7,60.0,93,73,46,30.08,29.97,6,1,9,0.00
2013-8-20,87.3,76.2,65.1,69.0,64.8,61.0,90,70,44,30.05,29.98,8,1,13,0.00
2013-8-21,89.5,78.0,66.5,70.0,67.3,63.0,89,72,50,30.06,29.98,9,2,15,0.00
2013-8-22,92.0,80.7,70.6,73.0,68.8,65.0,86,69,46,30.07,29.97,9,1,13,0.00
2013-8-23,89.9,80.6,69.6,72.0,68.5,64.0,89,69,44,30.04,29.95,6,1,11,0.00
2013-8-24,89.4,80.7,71.9,73.0,70.2,68.0,89,71,50,30.10,29.99,8,3,11,0.00
2013-8-25,92.1,81.5,71.1,74.0,70.2,68.0,90,70,51,30.16,30.07,7,2,12,0.00
2013-8-26,91.3,82.2,73.7,74.0,71.4,69.0,85,71,52,30.16,30.04,8,2,13,0.00
2013-8-27,90.9,80.3,71.3,73.0,68.4,63.0,86,69,40,30.07,29.98,11,2,17,0.00
2013-8-28,92.4,81.5,71.2,72.0,69.6,66.0,85,69,49,30.03,29.96,9,1,15,0.00
2013-8-29,95.7,84.5,73.7,74.0,70.9,69.0,85,66,43,30.02,29.92,11,2,13,0.00
2013-8-30,95.0,85.0,75.9,74.0,71.5,69.0,80,65,46,29.94,29.81,10,2,12,0.00
2013-8-31,96.2,85.6,76.2,75.0,71.4,69.0,80,64,47,29.84,29.73,9,2,13,0.00
2013-9-1,85.0,79.9,72.7,72.0,70.1,68.0,92,72,61,29.87,29.73,15,3,23,0.07
2013-9-2,83.9,75.8,66.8,71.0,63.4,60.0,92,67,48,29.98,29.86,8,3,17,0.00
2013-9-3,85.1,73.6,59.5,64.0,60.0,57.0,93,66,38,30.05,29.95,9,2,14,0.00
2013-9-4,88.3,75.0,60.1,64.0,60.3,57.0,90,63,37,30.12,30.02,6,1,10,0.00
2013-9-5,88.2,76.1,64.1,65.0,61.5,59.0,83,63,41,30.15,30.05,6,2,10,0.00
2013-9-6,90.6,77.3,64.7,66.0,63.0,59.0,82,64,41,30.10,29.96,5,1,10,0.00
2013-9-7,94.3,81.4,70.2,69.0,65.4,62.0,77,60,38,29.99,29.88,11,2,14,0.00
2013-9-8,94.9,84.3,74.8,70.0,67.4,65.0,72,58,42,29.90,29.82,9,2,12,0.00
2013-9-9,94.4,83.6,73.1,68.0,65.7,63.0,73,57,36,29.94,29.86,11,2,18,0.00
2013-9-10,92.4,81.8,73.3,68.0,65.2,62.0,79,59,41,30.06,29.93,12,2,17,0.00
2013-9-11,92.9,80.2,68.4,69.0,66.3,64.0,85,65,42,30.11,30.00,6,1,12,0.00
2013-9-12,86.8,78.3,71.0,71.0,68.0,66.0,86,71,56,30.05,29.97,11,3,13,0.00
2013-9-13,78.4,70.7,62.3,66.0,52.8,49.0,79,55,38,30.09,29.98,15,6,18,0.00
2013-9-14,79.3,68.0,55.8,54.0,51.5,47.0,82,58,33,30.07,29.94,12,4,15,0.00
2013-9-15,90.2,75.2,63.3,68.0,59.2,51.0,80,59,43,30.01,29.94,14,2,17,0.00
2013-9-16,75.2,70.9,67.3,70.0,67.2,65.0,93,88,76,30.16,30.01,8,2,13,0.29
2013-9-17,76.1,71.5,66.7,70.0,67.0,65.0,94,86,76,30.12,29.95,6,2,12,0.03
2013-9-18,89.5,78.1,69.6,71.0,67.6,65.0,87,72,51,29.97,29.86,11,3,16,0.01
2013-9-19,90.9,79.1,70.5,72.0,68.1,65.0,92,70,49,29.92,29.78,11,3,25,0.18
2013-9-20,70.9,66.4,57.2,68.0,59.2,52.0,94,79,54,29.98,29.87,10,2,16,0.27
2013-9-21,73.7,61.2,47.6,53.0,49.8,46.0,94,70,39,30.03,29.90,10,2,13,0.01
2013-9-22,75.7,63.1,51.2,53.0,50.1,46.0,92,65,37,29.98,29.84,9,2,12,0.00
2013-9-23,77.9,65.9,54.4,58.0,53.8,50.0,85,67,45,29.91,29.77,10,3,16,0.00
2013-9-24,78.3,69.1,61.7,59.0,56.8,55.0,79,66,52,29.83,29.80,14,4,17,0.00
2013-9-25,79.9,68.0,54.8,62.0,58.5,53.0,94,74,51,29.87,29.78,5,1,9,0.00
2013-9-26,85.9,72.8,60.9,62.0,59.6,56.0,86,66,40,29.90,29.81,9,3,14,0.00
2013-9-27,85.2,74.8,65.3,64.0,61.4,60.0,82,64,46,29.95,29.84,12,4,16,0.00
2013-9-28,76.4,67.6,57.9,68.0,61.5,56.0,94,82,65,30.04,29.82,14,3,18,0.74
2013-9-29,72.2,61.1,53.4,56.0,54.2,52.0,97,80,50,30.08,29.93,9,1,12,0.01
2013-9-30,80.0,67.0,54.5,65.0,59.4,52.0,95,78,53,29.93,29.81,7,1,12,0.01
2013-10-1,84.7,73.8,64.8,70.0,65.8,63.0,95,78,53,29.94,29.84,9,1,11,0.01
2013-10-2,83.1,74.2,67.0,71.0,67.7,65.0,94,81,61,29.97,29.85,6,1,17,0.00
2013-10-3,83.8,76.1,70.2,71.0,68.1,67.0,89,77,62,29.87,29.76,15,4,20,0.00
2013-10-4,84.9,77.3,72.3,71.0,68.1,65.0,86,74,60,29.85,29.77,13,4,19,0.00
2013-10-5,75.9,56.7,47.6,67.0,50.1,43.0,93,79,54,30.04,29.84,10,2,23,0.83
2013-10-6,62.9,54.0,45.1,47.0,42.5,37.0,83,66,49,30.02,29.93,15,4,22,0.00
2013-10-7,70.3,55.5,42.5,51.0,44.5,41.0,94,71,38,30.16,30.02,3,0,8,0.00
2013-10-8,71.9,60.1,49.2,51.0,47.8,46.0,90,67,41,30.14,30.03,10,1,13,0.01
2013-10-9,75.0,62.2,49.0,53.0,48.1,40.0,86,63,29,30.11,30.01,8,2,11,0.00
2013-10-10,76.8,64.5,52.9,59.0,53.9,49.0,86,70,48,30.07,29.88,9,2,12,0.00
2013-10-11,75.6,67.2,57.6,65.0,60.4,54.0,89,79,67,29.88,29.79,12,4,25,0.00
2013-10-12,69.7,64.0,57.7,65.0,54.5,47.0,95,73,48,30.17,29.83,12,4,22,0.72
2013-10-13,69.6,61.2,53.0,50.0,47.8,45.0,82,62,47,30.33,30.17,15,6,20,0.38
2013-10-14,64.0,61.4,58.8,61.0,52.7,46.0,92,74,60,30.25,29.90,11,5,19,0.12
2013-10-15,64.6,57.4,51.6,62.0,52.1,44.0,94,82,67,30.07,29.84,11,2,19,0.28
2013-10-16,56.8,50.3,40.9,46.0,41.9,37.0,90,74,58,30.14,30.01,7,1,14,0.01
2013-10-17,63.4,52.4,42.7,46.0,44.7,41.0,94,77,49,30.07,29.96,9,1,15,0.01
2013-10-18,52.1,46.2,39.6,45.0,41.5,38.0,92,84,71,30.12,30.00,11,3,18,0.16
2013-10-19,58.8,46.0,35.6,42.0,38.0,34.0,94,76,47,30.15,30.01,10,2,15,0.00
2013-10-20,68.4,55.7,45.8,44.0,40.6,36.0,79,60,31,30.01,29.84,14,3,21,0.00
2013-10-21,55.3,49.5,39.4,45.0,39.9,34.0,91,71,49,30.11,29.93,12,2,17,0.00
2013-10-22,68.2,52.7,37.2,48.0,40.0,35.0,90,65,35,30.08,29.93,12,4,22,0.01
2013-10-23,60.7,48.0,37.0,42.0,37.1,33.0,87,67,46,30.20,30.01,7,2,9,0.00
2013-10-24,51.1,44.9,35.8,40.0,33.4,27.0,86,66,40,30.43,30.09,11,3,16,0.00
2013-10-25,57.8,45.4,33.8,34.0,29.0,25.0,81,56,30,30.52,30.21,10,2,14,0.00
2013-10-26,64.3,53.4,46.1,51.0,43.7,33.0,89,70,59,30.21,30.09,11,3,15,0.00
2013-10-27,64.9,49.1,33.6,39.0,35.0,31.0,90,63,30,30.14,29.98,5,1,8,0.00
2013-10-28,69.2,56.1,39.6,56.0,49.3,36.0,96,79,53,30.16,30.02,8,2,13,0.00
2013-10-29,68.2,62.8,56.1,65.0,60.6,52.0,95,92,83,30.10,29.93,13,3,16,1.77
2013-10-30,68.9,66.8,64.1,65.0,63.4,60.0,93,88,84,29.98,29.76,13,4,21,0.36
2013-10-31,64.5,58.3,50.2,62.0,55.6,46.0,95,91,83,29.74,29.48,13,3,19,0.48
2013-11-1,65.7,53.9,43.4,48.0,43.7,40.0,91,70,43,30.01,29.73,12,3,17,0.00
2013-11-2,55.6,46.7,36.5,41.0,37.7,34.0,92,72,47,30.22,30.01,8,2,16,0.00
2013-11-3,60.8,48.6,34.7,41.0,37.0,32.0,92,67,41,30.22,30.00,12,3,19,0.00
2013-11-4,64.5,56.7,50.6,52.0,47.4,41.0,84,72,60,30.12,29.97,22,5,22,0.02
2013-11-5,63.3,58.7,54.9,60.0,56.2,52.0,94,91,85,30.11,29.89,9,4,17,0.57
2013-11-6,63.6,43.5,32.1,61.0,39.3,31.0,94,85,71,30.38,29.88,10,3,22,0.79
2013-11-7,59.8,43.0,29.4,42.0,35.2,28.0,95,77,44,30.47,30.36,7,1,11,0.00
2013-11-8,64.9,51.8,35.5,40.0,37.0,33.0,92,61,33,30.36,30.02,13,4,27,0.01
2013-11-9,64.9,55.4,46.9,46.0,43.0,39.0,87,64,48,30.27,30.06,13,2,17,0.00
2013-11-10,64.5,53.1,42.5,44.0,40.2,37.0,92,65,39,30.38,30.25,12,2,18,0.00
2013-11-11,61.5,54.0,38.0,52.0,45.5,31.0,86,73,63,30.48,30.17,18,4,26,0.01
2013-11-12,36.3,30.2,24.1,29.0,18.4,14.0,82,63,43,30.82,30.50,20,6,22,0.00
2013-11-13,48.9,34.9,19.8,21.0,18.5,16.0,89,56,28,30.75,30.32,10,3,16,0.00
2013-11-14,52.0,43.8,34.8,29.0,23.3,20.0,57,46,30,30.32,30.03,14,5,22,0.00
2013-11-15,61.0,51.1,42.0,49.0,41.5,29.0,86,71,50,30.04,29.80,9,3,17,0.09
2013-11-16,70.5,63.9,53.6,63.0,57.9,49.0,88,81,68,29.80,29.51,21,8,26,0.19
2013-11-17,71.7,65.1,49.7,65.0,43.1,20.0,81,49,21,30.06,29.43,28,8,39,0.00
2013-11-18,58.4,48.8,37.1,38.0,31.6,24.0,86,54,27,30.27,30.03,10,2,14,0.00
2013-11-19,60.2,52.0,42.8,31.0,26.5,19.0,63,38,26,30.25,30.03,14,6,18,0.00
2013-11-20,58.3,53.6,43.4,41.0,28.5,14.0,61,39,22,30.03,29.87,17,5,22,0.03
2013-11-21,57.9,50.4,34.8,52.0,45.9,33.0,95,86,55,30.34,29.96,9,2,14,0.87
2013-11-22,34.2,31.1,28.8,32.0,28.1,26.0,93,88,84,30.59,30.34,15,6,17,0.01
2013-11-23,36.7,30.1,20.9,28.0,19.4,11.0,87,66,47,30.75,30.58,15,7,20,0.00
2013-11-24,30.9,24.4,17.1,16.0,12.3,10.0,78,61,42,30.75,30.40,10,5,15,0.00
2013-11-25,37.0,33.3,29.0,29.0,24.1,15.0,81,69,52,30.40,30.22,8,2,11,0.01
2013-11-26,42.9,33.9,25.8,29.0,24.5,15.0,85,69,55,30.42,30.18,14,3,22,0.00
2013-11-27,33.9,26.3,17.9,16.0,13.1,11.0,78,59,40,30.49,30.32,10,1,11,0.00
2013-11-28,49.1,38.0,30.0,29.0,22.6,14.0,84,55,44,30.48,30.29,13,3,18,0.00
2013-11-29,53.4,40.7,27.1,30.0,24.9,20.0,86,57,29,30.52,30.32,6,1,13,0.00
2013-11-30,58.8,48.9,40.9,43.0,36.1,26.0,89,62,55,30.32,30.10,15,5,21,0.00
2013-12-1,52.7,44.7,34.1,49.0,42.6,32.0,96,92,87,30.12,29.91,2,0,7,0.00
2013-12-2,62.2,50.7,41.8,50.0,46.7,40.0,96,87,63,29.90,29.64,9,1,9,0.00
2013-12-3,66.5,54.7,44.8,52.0,47.7,44.0,95,79,49,29.64,29.52,6,1,13,0.02
2013-12-4,54.2,42.8,28.7,50.0,39.2,24.0,93,87,77,30.05,29.49,16,4,21,0.00
2013-12-5,28.6,23.3,20.6,23.0,15.1,11.0,84,71,61,30.36,30.04,10,5,16,0.00
2013-12-6,20.7,17.8,13.3,16.0,11.3,4.0,89,76,58,30.66,30.33,16,6,17,0.00
2013-12-7,20.3,15.4,9.1,13.0,6.2,2.0,75,67,60,30.73,30.39,13,6,18,0.00
2013-12-8,28.6,24.5,19.8,27.0,20.8,12.0,93,86,68,30.37,30.04,10,4,15,0.00
2013-12-9,25.7,20.3,16.1,23.0,15.9,13.0,90,83,68,30.43,30.24,7,2,12,0.00
2013-12-10,32.7,21.4,7.8,20.0,14.0,5.0,90,74,54,30.49,30.30,9,2,15,0.10
2013-12-11,32.5,24.9,14.8,21.0,16.8,11.0,92,73,45,30.67,30.33,13,2,20,0.00
2013-12-12,41.3,28.4,13.0,26.0,18.6,9.0,87,68,53,30.66,30.28,9,2,22,0.01
2013-12-13,38.1,36.1,32.6,35.0,30.6,23.0,95,81,60,30.28,29.87,10,3,23,0.48
2013-12-14,36.3,30.9,21.6,35.0,28.3,20.0,95,90,83,30.29,29.86,9,2,15,0.06
2013-12-15,51.1,36.1,19.3,34.0,27.4,17.0,92,73,50,30.29,30.10,13,4,22,0.00
2013-12-16,63.0,50.0,41.5,35.0,32.7,31.0,73,53,32,30.13,30.02,14,5,21,0.00
2013-12-17,53.3,40.0,29.7,37.0,30.3,26.0,91,71,41,30.32,30.12,11,1,13,0.00
2013-12-18,63.8,50.0,30.2,40.0,32.9,25.0,84,54,35,30.30,29.90,25,5,29,0.00
2013-12-19,61.4,57.1,53.0,55.0,48.7,39.0,80,74,57,29.90,29.66,13,5,19,0.00
2013-12-20,63.7,38.3,27.8,57.0,34.6,24.0,93,86,77,29.92,29.65,17,3,28,0.00
2013-12-21,32.8,30.9,28.3,31.0,29.0,26.0,95,92,91,29.86,29.53,5,0,7,0.00
2013-12-22,32.3,27.8,24.6,31.0,25.3,21.0,95,90,85,30.42,29.74,0,0,0,0.00
2013-12-23,24.7,20.2,16.0,21.0,16.3,13.0,88,85,78,30.67,30.42,0,0,0,0.00
2013-12-24,36.4,25.1,13.2,32.0,21.1,10.0,88,84,79,30.65,30.27,5,0,8,0.29
2013-12-25,39.3,33.5,25.6,34.0,30.1,24.0,93,87,79,30.42,30.33,6,1,11,0.21
2013-12-26,49.1,35.7,22.0,35.0,28.0,20.0,95,76,51,30.43,30.30,12,2,16,0.31
2013-12-27,56.4,45.1,34.0,33.0,30.5,28.0,79,58,38,30.41,30.29,10,2,17,0.01
2013-12-28,55.0,45.3,36.4,37.0,31.7,28.0,77,60,40,30.29,29.92,13,2,15,0.00
2013-12-29,46.5,28.6,17.7,37.0,20.6,7.0,83,72,62,30.34,29.93,16,4,16,0.00
2013-12-30,33.9,22.7,12.1,18.0,11.2,4.0,73,62,47,30.41,30.29,10,3,11,0.00
2013-12-31,53.0,38.5,20.7,29.0,21.6,16.0,83,54,31,30.42,30.16,18,3,20,0.00
2014-1-1,53.4,37.8,15.7,31.0,24.1,13.0,89,60,37,30.25,29.90,11,4,19,0.00
2014-1-2,20.7,14.1,6.6,13.0,7.5,3.0,88,76,58,30.55,30.26,12,1,14,0.00